Location: Arlington
(40.6323°N, 74.1651°W)
Time: 17:18:00
(UTC+00:00)

Cosmos 2360 Rocket - Pass Details

Date: 22 November 2019
Orbit: 832 x 847 km, 71.0° (Epoch: 09 December)

Event Time Altitude Azimuth Distance (km) Brightness Sun altitude
Rises 23:26:16 0° 182° (S) 3,373 5.5 -21.1°
Reaches altitude 10° 23:28:48 10° 176° (S) 2,446 4.6 -21.5°
Enters shadow 23:33:36 42° 119° (ESE) 1,183 2.6 -22.4°
